IT9GFD-13 Weather Reports


time (UTC)temp
C
wind
direction
speed
KPH
gust
KPH
rain 1hr
cm
rain 24hr
cm
rain mn
cm
humidity
%
barometer
mb
20260906083017 30 293 9.7 17.7 0.00 0.00 0.00 65 1021.8
20260906082018 29 293 6.4 16.1 0.00 0.00 0.00 67 1021.7
20260906081017 29 293 11.3 22.5 0.00 0.00 0.00 68 1021.8
20260906080058 28 270 9.7 20.9 0.00 0.00 0.00 68 1021.8
20260906075017 29 270 9.7 17.7 0.00 0.00 0.00 69 1021.7
20260906074017 28 293 6.4 12.9 0.00 0.00 0.00 70 1021.7
20260906073017 28 113 4.8 12.9 0.00 0.00 0.00 71 1021.7
20260906072018 28 270 9.7 19.3 0.00 0.00 0.00 73 1021.5
20260906071017 28 270 9.7 19.3 0.00 0.00 0.00 73 1021.5
20260906070017 28 270 9.7 17.7 0.00 0.00 0.00 75 1021.6
20260906065017 27 315 12.9 20.9 0.00 0.00 0.00 77 1021.4
20260906064038 27 293 11.3 20.9 0.00 0.00 0.00 78 1021.6
20260906063018 27 293 12.9 22.5 0.00 0.00 0.00 78 1021.6
20260906062017 27 293 12.9 20.9 0.00 0.00 0.00 78 1021.4
20260906061017 27 315 11.3 19.3 0.00 0.00 0.00 79 1021.3
20260906060017 27 293 14.5 22.5 0.00 0.00 0.00 79 1021.2
20260906055037 27 293 14.5 25.7 0.00 0.00 0.00 80 1021.0
20260906054037 27 315 11.3 24.1 0.00 0.00 0.00 81 1020.9
20260906053017 26 315 11.3 17.7 0.00 0.00 0.00 81 1020.3
20260906052017 26 315 11.3 20.9 0.00 0.00 0.00 81 1018.7
20260906051017 26 293 12.9 20.9 0.00 0.00 0.00 82 1018.2
20260906050017 26 293 8.0 16.1 0.00 0.00 0.00 82 1018.2
20260906045017 26 293 8.0 19.3 0.00 0.00 0.00 82 1018.0
20260906044017 26 293 8.0 17.7 0.00 0.00 0.00 82 1018.2
20260906043017 26 315 11.3 19.3 0.00 0.00 0.00 82 1018.1
20260906042017 26 270 6.4 12.9 0.00 0.00 0.00 82 1017.9
20260906041017 26 270 11.3 24.1 0.00 0.00 0.00 82 1017.9
20260906040017 26 315 16.1 27.4 0.00 0.00 0.00 82 1017.8
20260906035017 26 293 11.3 20.9 0.00 0.00 0.00 82 1017.7
20260906034017 26 293 12.9 22.5 0.00 0.00 0.00 81 1017.6
20260906033017 26 315 8.0 16.1 0.00 0.00 0.00 81 1017.6
20260906032017 26 293 11.3 20.9 0.00 0.00 0.00 81 1017.5
20260906031017 26 315 12.9 22.5 0.00 0.00 0.00 80 1017.7
20260906030037 26 315 9.7 19.3 0.00 0.00 0.00 80 1017.8
20260906025017 26 315 11.3 20.9 0.00 0.00 0.00 80 1018.0
20260906024017 26 293 9.7 19.3 0.00 0.00 0.00 81 1017.8
20260906023016 26 270 12.9 22.5 0.00 0.00 0.00 80 1017.9
20260906022017 26 315 11.3 25.7 0.00 0.00 0.00 80 1018.0
20260906021017 26 270 9.7 20.9 0.00 0.00 0.00 80 1017.8
20260906020036 26 315 8.0 20.9 0.00 0.00 0.00 81 1017.9
20260906015016 26 293 11.3 20.9 0.00 0.00 0.00 80 1017.8
20260906014017 26 293 9.7 27.4 0.00 0.00 0.00 80 1017.9
20260906013016 26 315 12.9 24.1 0.00 0.00 0.00 80 1017.8
20260906012017 26 270 12.9 25.7 0.00 0.00 0.00 80 1017.7
20260906011016 26 293 12.9 22.5 0.00 0.00 0.00 80 1017.8
20260906010057 26 293 12.9 20.9 0.00 0.00 0.00 80 1017.7
20260906005017 26 293 9.7 24.1 0.00 0.00 0.00 81 1017.7
20260906004016 26 293 8.0 16.1 0.00 0.00 0.00 81 1017.7
20260906003017 27 315 9.7 17.7 0.00 0.00 0.00 81 1017.7
20260906002016 27 315 8.0 16.1 0.00 0.00 0.00 81 1017.5
20260906001016 27 293 8.0 16.1 0.00 0.00 0.00 82 1017.7
20260906000017 27 315 6.4 12.9 0.00 0.00 0.00 82 1017.6
20260905235016 27 293 6.4 12.9 0.00 0.00 0.00 82 1017.7
20260905234037 27 293 4.8 9.7 0.00 0.00 0.00 82 1017.6
20260905233016 27 315 3.2 9.7 0.00 0.00 0.00 82 1017.7
20260905232017 27 23 4.8 11.3 0.00 0.00 0.00 82 1017.6
20260905231016 27 293 4.8 8.0 0.00 0.00 0.00 82 1017.6
20260905230016 27 270 3.2 9.7 0.00 0.00 0.00 82 1017.5
20260905225016 27 338 1.6 6.4 0.00 0.00 0.00 82 1017.4
20260905224016 27 293 4.8 11.3 0.00 0.00 0.00 82 1017.3
20260905223016 27 270 4.8 11.3 0.00 0.00 0.00 82 1017.5
20260905222017 27 293 6.4 11.3 0.00 0.00 0.00 82 1017.4
20260905221017 27 248 3.2 8.0 0.00 0.00 0.00 82 1017.1
20260905220016 27 293 3.2 9.7 0.00 0.00 0.00 82 1017.0
20260905215036 27 270 4.8 9.7 0.00 0.00 0.00 82 1016.7
20260905214016 27 270 4.8 6.4 0.00 0.00 0.00 81 1016.1
20260905213016 27 270 3.2 6.4 0.00 0.00 0.00 81 1016.3
20260905212017 27 270 3.2 6.4 0.00 0.00 0.00 81 1016.4
20260905211016 27 270 4.8 8.0 0.00 0.00 0.00 81 1016.6
20260905210016 27 270 4.8 9.7 0.00 0.00 0.00 80 1016.5
20260905205016 27 270 4.8 6.4 0.00 0.00 0.00 80 1016.6
20260905204016 27 270 3.2 4.8 0.00 0.00 0.00 80 1016.7
20260905203016 27 270 4.8 6.4 0.00 0.00 0.00 80 1016.9
20260905202016 27 270 4.8 6.4 0.00 0.00 0.00 79 1016.9
20260905201016 27 270 4.8 11.3 0.00 0.00 0.00 79 1017.0
20260905200056 27 270 4.8 6.4 0.00 0.00 0.00 79 1017.1
20260905195036 27 270 6.4 11.3 0.00 0.00 0.00 79 1017.2
20260905194016 27 270 6.4 12.9 0.00 0.00 0.00 79 1017.1
20260905193016 27 270 8.0 12.9 0.00 0.00 0.00 79 1017.1
20260905192016 27 270 8.0 12.9 0.00 0.00 0.00 79 1017.2
20260905191016 27 270 8.0 14.5 0.00 0.00 0.00 78 1017.2
20260905190036 27 270 8.0 12.9 0.00 0.00 0.00 78 1017.0
20260905185036 27 248 3.2 11.3 0.00 0.00 0.00 78 1016.8
20260905184016 27 270 8.0 14.5 0.00 0.00 0.00 78 1016.8
20260905183016 27 248 8.0 19.3 0.00 0.00 0.00 78 1016.7
20260905182016 28 293 4.8 11.3 0.00 0.00 0.00 77 1016.5
20260905181016 28 293 6.4 11.3 0.00 0.00 0.00 76 1016.5
20260905180016 28 293 6.4 12.9 0.00 0.00 0.00 75 1016.5
20260905175016 28 293 3.2 6.4 0.00 0.00 0.00 74 1016.5
20260905174036 28 248 6.4 14.5 0.00 0.00 0.00 73 1016.7
20260905173036 28 270 4.8 12.9 0.00 0.00 0.00 72 1016.7
20260905172016 28 293 6.4 14.5 0.00 0.00 0.00 72 1016.5
20260905171016 28 293 4.8 12.9 0.00 0.00 0.00 71 1016.5
20260905170016 28 270 9.7 14.5 0.00 0.00 0.00 70 1016.6
20260905165016 28 270 6.4 16.1 0.00 0.00 0.00 69 1016.7
20260905164016 29 315 4.8 14.5 0.00 0.00 0.00 68 1016.7
20260905163015 29 338 4.8 16.1 0.00 0.00 0.00 69 1016.8
20260905162015 29 293 11.3 20.9 0.00 0.00 0.00 68 1016.9
20260905161016 29 315 9.7 17.7 0.00 0.00 0.00 67 1017.0
20260905160016 30 338 8.0 17.7 0.00 0.00 0.00 65 1016.7
20260905155036 30 270 11.3 19.3 0.00 0.00 0.00 63 1016.8
20260905154016 30 270 8.0 17.7 0.00 0.00 0.00 61 1016.9
20260905153019 30 270 8.0 17.7 0.00 0.00 0.00 59 1016.9
20260905152015 31 315 6.4 16.1 0.00 0.00 0.00 54 1017.0
20260905151016 31 293 6.4 14.5 0.00 0.00 0.00 49 1016.8
20260905150015 31 248 3.2 12.9 0.00 0.00 0.00 46 1016.9
20260905145015 32 315 9.7 22.5 0.00 0.00 0.00 46 1017.1
20260905144015 32 293 4.8 8.0 0.00 0.00 0.00 53 1017.0
20260905143015 32 293 12.9 24.1 0.00 0.00 0.00 54 1017.1
20260905142016 32 293 3.2 17.7 0.00 0.00 0.00 54 1017.1
20260905141016 32 270 8.0 17.7 0.00 0.00 0.00 53 1017.3
20260905140016 32 293 11.3 20.9 0.00 0.00 0.00 52 1017.5
20260905135015 32 293 11.3 20.9 0.00 0.00 0.00 50 1017.7
20260905134015 30 293 11.3 16.1 0.00 0.00 0.00 49 1017.7
20260905133015 31 113 12.9 25.7 0.00 0.00 0.00 67 1018.0
20260905132015 32 90 4.8 16.1 0.00 0.00 0.00 51 1018.1
20260905131035 32 293 4.8 12.9 0.00 0.00 0.00 52 1018.2
20260905130015 32 0 8.0 17.7 0.00 0.00 0.00 42 1018.2
20260905125015 32 293 11.3 24.1 0.00 0.00 0.00 40 1018.7
20260905124015 32 293 4.8 12.9 0.00 0.00 0.00 43 1018.8
20260905123015 32 315 9.7 17.7 0.00 0.00 0.00 43 1018.6
20260905122015 31 68 4.8 17.7 0.00 0.00 0.00 52 1019.5
20260905121017 31 293 8.0 17.7 0.00 0.00 0.00 45 1020.6
20260905120057 31 315 11.3 24.1 0.00 0.00 0.00 46 1020.8
20260905115016 31 315 12.9 24.1 0.00 0.00 0.00 46 1020.8
20260905114038 31 45 6.4 14.5 0.00 0.00 0.00 60 1021.1
20260905113017 31 270 11.3 25.7 0.00 0.00 0.00 48 1021.0
20260905112017 31 338 8.0 17.7 0.00 0.00 0.00 49 1021.0
20260905111018 31 90 9.7 25.7 0.00 0.00 0.00 62 1021.0
20260905110017 32 293 8.0 17.7 0.00 0.00 0.00 49 1021.0
20260905105018 32 293 4.8 16.1 0.00 0.00 0.00 50 1021.0
20260905104017 31 90 4.8 17.7 0.00 0.00 0.00 55 1020.9
20260905103037 31 293 8.0 14.5 0.00 0.00 0.00 53 1020.9
20260905102017 31 315 8.0 17.7 0.00 0.00 0.00 54 1021.1
20260905101017 30 90 4.8 20.9 0.00 0.00 0.00 59 1021.0
20260905100017 30 68 4.8 16.1 0.00 0.00 0.00 64 1021.1
20260905095017 30 90 8.0 14.5 0.00 0.00 0.00 68 1021.1
20260905094017 30 135 9.7 19.3 0.00 0.00 0.00 68 1021.1
20260905093037 30 113 11.3 22.5 0.00 0.00 0.00 69 1021.1
20260905092017 30 90 12.9 29.0 0.00 0.00 0.00 67 1020.9
20260905091017 30 270 8.0 20.9 0.00 0.00 0.00 58 1021.1
20260905090017 29 113 8.0 17.7 0.00 0.00 0.00 70 1021.1
20260905085017 29 113 9.7 22.5 0.00 0.00 0.00 69 1021.3
20260905084017 29 113 12.9 27.4 0.00 0.00 0.00 71 1021.5